DW3835 Weather Reports


Display with metric or nautical units.
time (UTC)temp
F
wind
direction
speed
MPH
gust
MPH
rain 1hr
in
rain 24hr
in
rain mn
in
humidity
%
barometer
mb
20220703000055 62 201 1.0 4.0 0.00 0.00 0.00 78 1012.9
20220702235035 62 104 1.0 10.0 0.00 0.00 0.00 78 1013.1
20220702234023 62 179 1.0 10.0 0.00 0.00 0.00 77 1013.1
20220702233003 62 76 1.0 6.0 0.00 0.00 0.00 76 1013.2
20220702231952 63 150 1.0 7.0 0.00 0.00 0.00 76 1013.1
20220702230922 63 178 1.0 7.0 0.00 0.00 0.00 76 1013.2
20220702225847 63 152 2.0 7.0 0.00 0.00 0.00 75 1013.1
20220702224905 64 144 1.0 7.0 0.00 0.00 0.00 74 1013.2
20220702223831 63 97 0.0 5.0 0.00 0.00 0.00 75 1013.2
20220702222843 63 97 1.0 6.0 0.00 0.00 0.00 75 1013.3
20220702221844 63 80 2.0 9.0 0.00 0.00 0.00 75 1013.3
20220702220835 63 119 2.0 9.0 0.00 0.00 0.00 76 1013.3
20220702215811 63 94 1.0 9.0 0.00 0.00 0.00 77 1013.3
20220702214830 62 143 2.0 8.0 0.00 0.00 0.00 80 1013.4
20220702213820 60 71 2.0 7.0 0.00 0.00 0.00 80 1013.4
20220702212809 60 110 1.0 7.0 0.00 0.00 0.00 80 1013.6
20220702211750 60 177 2.0 12.0 0.00 0.00 0.00 80 1013.7
20220702210758 60 172 1.0 12.0 0.00 0.00 0.00 81 1013.7
20220702205740 59 131 2.0 9.0 0.00 0.00 0.00 82 1013.8
20220702204737 59 207 2.0 9.0 0.00 0.00 0.00 81 1013.7
20220702203727 59 158 2.0 7.0 0.00 0.00 0.00 82 1013.8
20220702202706 59 74 1.0 5.0 0.00 0.00 0.00 82 1013.7
20220702201721 59 153 2.0 9.0 0.00 0.00 0.00 83 1013.7
20220702200714 59 174 2.0 9.0 0.00 0.00 0.00 83 1013.8
20220702195739 59 175 1.0 5.0 0.00 0.00 0.00 83 1013.8
20220702194709 58 106 1.0 5.0 0.00 0.00 0.00 83 1013.8
20220702193733 59 181 1.0 5.0 0.00 0.00 0.00 83 1013.9
20220702192739 59 198 0.0 4.0 0.00 0.00 0.00 84 1013.8
20220702191759 58 249 0.0 4.0 0.00 0.00 0.00 85 1013.8
20220702190750 58 188 0.0 3.0 0.00 0.00 0.00 84 1013.8
20220702185739 58 56 0.0 4.0 0.00 0.00 0.00 85 1013.8
20220702184750 58 157 1.0 4.0 0.00 0.00 0.00 86 1013.7
20220702183742 57 148 0.0 8.0 0.00 0.00 0.00 86 1013.8
20220702182728 57 262 0.0 8.0 0.00 0.00 0.00 86 1013.7
20220702181702 57 121 0.0 7.0 0.00 0.00 0.00 86 1013.7
20220702180656 57 197 0.0 5.0 0.00 0.00 0.00 86 1013.6
20220702175708 57 138 0.0 3.0 0.00 0.00 0.00 86 1013.6
20220702174709 56 144 1.0 6.0 0.00 0.00 0.00 87 1013.6
20220702173658 56 76 0.0 7.0 0.00 0.00 0.00 86 1013.5
20220702172636 57 24 0.0 2.0 0.00 0.00 0.00 87 1013.5
20220702171604 56 171 1.0 7.0 0.00 0.00 0.00 87 1013.4
20220702170543 56 220 0.0 5.0 0.00 0.00 0.00 87 1013.5
20220702165545 56 185 0.0 7.0 0.00 0.00 0.00 88 1013.4
20220702164522 56 159 0.0 7.0 0.00 0.00 0.00 88 1013.4
20220702163519 56 0 0.0 3.0 0.00 0.00 0.00 89 1013.5
20220702162527 55 142 0.0 5.0 0.00 0.00 0.00 89 1013.3
20220702161526 55 213 0.0 3.0 0.00 0.00 0.00 89 1013.4
20220702160544 55 171 0.0 8.0 0.00 0.00 0.00 89 1013.3
20220702155536 55 194 0.0 8.0 0.00 0.00 0.00 90 1013.3
20220702154524 54 125 0.0 2.0 0.00 0.00 0.00 90 1013.3
20220702153527 54 190 1.0 4.0 0.00 0.00 0.00 90 1013.3
20220702152502 54 71 0.0 4.0 0.00 0.00 0.00 91 1013.2
20220702151510 54 61 0.0 2.0 0.00 0.00 0.00 91 1013.2
20220702150446 54 329 0.0 8.0 0.00 0.00 0.00 90 1013.1
20220702145419 54 316 0.0 8.0 0.00 0.00 0.00 91 1013.1
20220702144443 54 173 0.0 2.0 0.00 0.00 0.00 90 1013.2
20220702143439 54 191 0.0 6.0 0.00 0.00 0.00 91 1013.0
20220702142455 54 13 0.0 6.0 0.00 0.00 0.00 90 1013.0
20220702141424 54 141 0.0 1.0 0.00 0.00 0.00 91 1013.0
20220702140350 54 232 0.0 4.0 0.00 0.00 0.00 91 1012.9
20220702135359 54 197 0.0 1.0 0.00 0.00 0.00 91 1013.0
20220702134415 53 146 0.0 4.0 0.00 0.00 0.00 91 1013.0
20220702133406 54 223 0.0 4.0 0.00 0.00 0.00 91 1013.0
20220702132415 53 147 0.0 4.0 0.00 0.00 0.00 91 1012.9
20220702131436 53 123 1.0 5.0 0.00 0.00 0.00 90 1012.9
20220702130404 54 171 1.0 6.0 0.00 0.00 0.00 91 1012.7
20220702125332 53 173 1.0 6.0 0.00 0.00 0.00 90 1012.8
20220702124329 54 200 1.0 6.0 0.00 0.00 0.00 90 1012.7
20220702123327 54 155 0.0 6.0 0.00 0.00 0.00 90 1012.6
20220702122350 54 141 1.0 6.0 0.00 0.00 0.00 90 1012.6
20220702121333 54 103 0.0 3.0 0.00 0.00 0.00 90 1012.5
20220702120329 54 178 0.0 6.0 0.00 0.00 0.00 90 1012.6
20220702115336 54 51 1.0 6.0 0.00 0.00 0.00 89 1012.5
20220702114343 54 98 0.0 4.0 0.00 0.00 0.00 90 1012.6
20220702113407 54 117 0.0 5.0 0.00 0.00 0.00 90 1012.6
20220702112420 54 157 1.0 5.0 0.00 0.00 0.00 90 1012.6
20220702111359 54 152 0.0 6.0 0.00 0.00 0.00 89 1012.6
20220702110423 54 148 0.0 8.0 0.00 0.00 0.00 90 1012.7
20220702105412 54 187 0.0 8.0 0.00 0.00 0.00 89 1012.7
20220702104406 54 212 0.0 6.0 0.00 0.00 0.00 89 1012.7
20220702103341 54 127 1.0 5.0 0.00 0.00 0.00 89 1012.8
20220702102334 54 157 0.0 7.0 0.00 0.00 0.00 89 1012.8
20220702101334 54 142 0.0 9.0 0.00 0.00 0.00 89 1012.8
20220702100336 55 128 0.0 9.0 0.00 0.00 0.00 89 1012.8
20220702095307 54 257 0.0 9.0 0.00 0.00 0.00 89 1012.8
20220702094308 54 159 0.0 9.0 0.00 0.00 0.00 88 1012.8
20220702093242 54 160 0.0 4.0 0.00 0.00 0.00 88 1012.9
20220702092237 55 19 0.0 4.0 0.00 0.00 0.00 88 1012.9
20220702091227 54 167 0.0 4.0 0.00 0.00 0.00 89 1013.0
20220702090232 55 32 0.0 3.0 0.00 0.00 0.00 89 1013.0
20220702085216 55 169 0.0 7.0 0.00 0.00 0.00 89 1013.0
20220702084148 55 219 0.0 7.0 0.00 0.00 0.00 89 1013.1
20220702083155 54 132 0.0 7.0 0.00 0.00 0.00 89 1013.1
20220702082212 54 100 1.0 7.0 0.00 0.00 0.00 89 1013.1
20220702081229 54 191 0.0 6.0 0.00 0.00 0.00 89 1013.0
20220702080246 55 175 1.0 6.0 0.00 0.00 0.00 89 1013.2
20220702075230 54 184 1.0 7.0 0.00 0.00 0.00 89 1013.3
20220702074216 54 134 1.0 7.0 0.00 0.00 0.00 89 1013.2
20220702073216 55 157 1.0 6.0 0.00 0.00 0.00 89 1013.3
20220702072234 55 113 0.0 8.0 0.00 0.00 0.00 89 1013.4
20220702071255 55 94 1.0 8.0 0.00 0.00 0.00 89 1013.4
20220702070257 55 153 0.0 5.0 0.00 0.00 0.00 89 1013.3
20220702065227 55 194 1.0 5.0 0.00 0.00 0.00 88 1013.3
20220702064238 55 215 0.0 4.0 0.00 0.00 0.00 89 1013.3
20220702063250 55 355 0.0 5.0 0.00 0.00 0.00 89 1013.3
20220702062221 55 117 0.0 5.0 0.00 0.00 0.00 88 1013.3
20220702061215 55 176 1.0 6.0 0.00 0.00 0.00 88 1013.4
20220702060215 55 180 0.0 7.0 0.00 0.00 0.00 88 1013.4
20220702055208 55 63 1.0 7.0 0.00 0.00 0.00 88 1013.4
20220702054201 55 216 1.0 7.0 0.00 0.00 0.00 88 1013.5
20220702053156 55 92 0.0 8.0 0.00 0.00 0.00 87 1013.4
20220702052159 55 134 1.0 8.0 0.00 0.00 0.00 88 1013.3
20220702051200 55 184 1.0 7.0 0.00 0.00 0.00 87 1013.3
20220702050129 55 171 1.0 7.0 0.00 0.00 0.00 87 1013.3
20220702045144 56 98 1.0 7.0 0.00 0.00 0.00 86 1013.3
20220702044205 56 138 0.0 7.0 0.00 0.00 0.00 85 1013.2
20220702043152 56 149 0.0 9.0 0.00 0.00 0.00 85 1013.1
20220702042129 56 105 1.0 9.0 0.00 0.00 0.00 84 1013.0
20220702041114 56 196 1.0 6.0 0.00 0.00 0.00 84 1013.0
20220702040119 56 130 0.0 6.0 0.00 0.00 0.00 83 1013.0
20220702035114 57 119 1.0 5.0 0.00 0.00 0.00 83 1013.0
20220702034041 57 159 0.0 7.0 0.00 0.00 0.00 82 1013.0
20220702033045 57 140 0.0 7.0 0.00 0.00 0.00 82 1013.0
20220702032030 58 94 0.0 0.0 0.00 0.00 0.00 80 1012.8
20220702031034 58 236 0.0 5.0 0.00 0.00 0.00 80 1012.8
20220702030011 58 211 0.0 5.0 0.00 0.00 0.00 80 1012.7
20220702024937 58 157 0.0 3.0 0.00 0.00 0.00 79 1012.7
20220702023948 58 321 0.0 3.0 0.00 0.00 0.00 79 1012.7
20220702023012 59 132 0.0 2.0 0.00 0.00 0.00 77 1012.7
20220702022032 59 153 0.0 4.0 0.00 0.00 0.00 77 1012.6
20220702021027 60 117 1.0 4.0 0.00 0.00 0.00 75 1012.6
20220702020021 60 88 1.0 4.0 0.00 0.00 0.00 75 1012.6
20220702014948 61 104 0.0 3.0 0.00 0.00 0.00 73 1012.6
20220702013923 61 67 1.0 5.0 0.00 0.00 0.00 72 1012.7
20220702012901 62 165 0.0 4.0 0.00 0.00 0.00 71 1012.6
20220702011905 62 143 1.0 11.0 0.00 0.00 0.00 70 1012.7
20220702010833 63 180 0.0 11.0 0.00 0.00 0.00 69 1012.7
20220702005810 64 102 0.0 4.0 0.00 0.00 0.00 67 1012.8
20220702004756 64 125 1.0 3.0 0.00 0.00 0.00 66 1012.9
20220702003756 65 160 1.0 6.0 0.00 0.00 0.00 65 1012.9
20220702002813 66 196 1.0 7.0 0.00 0.00 0.00 65 1012.9
20220702001831 66 99 1.0 7.0 0.00 0.00 0.00 65 1013.0
20220702000838 66 161 1.0 7.0 0.00 0.00 0.00 64 1013.0